Nassau, Bahamas

7:35 AM EST on February 06, 2016 (GMT -0500)
Nassau International

Weather History for MYNN - August, 2014

Change the Weather History Date:

Sunday, August 24, 2014

  Actual Average Record
Temperature  
Mean Temperature 85 °F -  
Max Temperature 92 °F 88 °F 95 °F (2010)
Min Temperature 78 °F 74 °F 75 °F (2012)
Cooling Degree Days 20    
Growing Degree Days 35 (Base 50)    
Moisture  
Dew Point 75 °F    
Average Humidity 74    
Maximum Humidity 85    
Minimum Humidity 58    
Precipitation  
Precipitation 0.12 in 0.24 in - ()
Sea Level Pressure  
Sea Level Pressure 29.79 in    
Wind  
Wind Speed 8 mph ()    
Max Wind Speed 16 mph    
Max Gust Speed -    
Visibility 6.6 miles    
Events Rain    
Averages and records for this station are not official NWS values.
T = Trace of Precipitation, MM = Missing Value Source: Averaged Metar Reports

Daily Weather History Graph

Daily Weather History Graph

Search for Another Location

Airport or City:

Trip Planner

Search our weather history database for the weather conditions in past years. The results will help you decide how hot, cold, wet, or windy it might be!

Date:

Astronomy

Aug. 24, 2014 Rise Set
Actual Time 6:47 AM EDT 7:36 PM EDT
Civil Twilight 6:24 AM EDT 7:59 PM EDT
Nautical Twilight 5:56 AM EDT 8:27 PM EDT
Astronomical Twilight 5:28 AM EDT 8:55 PM EDT
Moon 5:56 AM EDT (8/24) 6:56 PM EDT (8/24)
Length of Visible Light 13h 35m
Length of Day
12h 48m
Waning Crescent, 1% of the Moon is Illuminated
Aug 24
Waning Crescent
Aug 25
New
Sep 2
First Quarter
Sep 8
Full
Sep 15
Last Quarter

Hourly Weather History & Observations

Time (EDT) Temp. Heat Index Dew Point Humidity Pressure Visibility Wind Dir Wind Speed Gust Speed Precip Events Conditions
12:00 AM 82.4 °F 89.5 °F 75.2 °F 79% 29.98 in 6.2 mi East 10.4 mph - N/A   Mostly Cloudy
1:00 AM 82.4 °F 89.5 °F 75.2 °F 79% 29.87 in 6.2 mi NE 5.8 mph - N/A   Mostly Cloudy
2:00 AM 82 °F - 78 °F 85% 29.84 in 9 mi NE 3.5 mph - -   Scattered Clouds
2:00 AM 82.4 °F 90.9 °F 77.0 °F 84% 29.84 in 6.2 mi NE 3.5 mph - N/A   Mostly Cloudy
3:00 AM 82.4 °F 89.5 °F 75.2 °F 79% 29.82 in 6.2 mi NE 3.5 mph - N/A   Mostly Cloudy
4:00 AM 82.4 °F 89.5 °F 75.2 °F 79% 29.80 in 6.2 mi NE 5.8 mph - N/A   Mostly Cloudy
5:00 AM 82 °F - 76 °F 79% 29.80 in 9 mi NE 6.9 mph - -   Scattered Clouds
5:00 AM 82.4 °F 89.5 °F 75.2 °F 79% 29.79 in 6.2 mi NE 6.9 mph - N/A   Mostly Cloudy
7:00 AM 82.4 °F 89.5 °F 75.2 °F 79% 29.78 in 6.2 mi NNE 8.1 mph - N/A   Mostly Cloudy
8:00 AM 84 °F - 78 °F 79% 29.79 in 9 mi NNE 9.2 mph - -   Partly Cloudy
8:00 AM 84.2 °F 96.1 °F 78.8 °F 84% 29.79 in 6.2 mi NNE 9.2 mph - N/A   Scattered Clouds
9:00 AM 86.0 °F 95.1 °F 75.2 °F 70% 29.79 in 6.2 mi NNE 11.5 mph - N/A   Scattered Clouds
10:00 AM 86.0 °F 95.1 °F 75.2 °F 70% 29.81 in 6.2 mi NNE 11.5 mph - N/A   Scattered Clouds
11:00 AM 89.6 °F 102.2 °F 77.0 °F 66% 29.81 in 6.2 mi North 13.8 mph - N/A   Scattered Clouds
12:00 PM 86.0 °F 95.1 °F 75.2 °F 70% 29.81 in 6.2 mi North 11.5 mph - N/A   Scattered Clouds
1:00 PM 87.8 °F 97.6 °F 75.2 °F 66% 29.80 in 6.2 mi North 11.5 mph - N/A   Scattered Clouds
2:00 PM 90 °F - 77 °F 58% 29.78 in 8 mi North 13.8 mph - -   Partly Cloudy
2:00 PM 89.6 °F 102.2 °F 77.0 °F 66% 29.78 in 6.2 mi North 13.8 mph - N/A   Scattered Clouds
2:30 PM 84.2 °F 92.3 °F 75.2 °F 74% 29.78 in 2.5 mi North 11.5 mph - N/A Rain Rain Showers
3:00 PM 78.8 °F - 73.4 °F 83% 29.78 in 5.6 mi North 13.8 mph - N/A Rain Light Rain Showers
4:00 PM 84.2 °F 92.3 °F 75.2 °F 74% 29.77 in 6.2 mi North 16.1 mph - N/A   Mostly Cloudy
5:00 PM 82 °F - 77 °F 82% 29.75 in 8 mi North 16.1 mph - - Rain Light Rain Showers
5:00 PM 82.4 °F 90.9 °F 77.0 °F 84% 29.75 in 6.2 mi North 16.1 mph - N/A   Scattered Clouds
6:00 PM 86.0 °F 93.4 °F 73.4 °F 66% 29.75 in 6.2 mi North 13.8 mph - N/A   Scattered Clouds
7:00 PM 86.0 °F 91.8 °F 71.6 °F 62% 29.74 in 6.2 mi North 11.5 mph - N/A   Partly Cloudy
8:00 PM 84 °F - 76 °F 72% 29.75 in 8 mi NNE 11.5 mph - -   Partly Cloudy
8:00 PM 84.2 °F 94.1 °F 77.0 °F 79% 29.74 in 6.2 mi NNE 11.5 mph - N/A   Scattered Clouds
9:00 PM 84.2 °F 89.6 °F 71.6 °F 66% 29.74 in 6.2 mi NNE 11.5 mph - N/A   Scattered Clouds
10:00 PM 84.2 °F 90.9 °F 73.4 °F 70% 29.76 in 6.2 mi NNE 13.8 mph - N/A   Scattered Clouds
11:00 PM 84 °F - 74 °F 64% 29.77 in 9 mi NNE 9.2 mph - -   Scattered Clouds
11:00 PM 84.2 °F 90.9 °F 73.4 °F 70% 29.77 in 6.2 mi NNE 9.2 mph - N/A   Partly Cloudy